{"data":{"norad_id":65963,"intl_designator":"2025-228S","name":"KUIPER-00137","alt_names":[],"object_type":"PAYLOAD","status":"ACTIVE","operator":null,"country":"US","launch_date":"2025-10-14","launch_site_code":"AFETR","launch_vehicle":null,"mission":null,"orbit_class":"UNKNOWN","rcs_meters":null,"size_class":null,"mass_kg":null,"dimensions":null,"purposes":[],"wikipedia_slug":null,"has_3d_model":false,"image_url":null,"decayed_at":null,"tle_current":{"epoch":"2026-05-24T21:14:40.972416Z","epoch_age_seconds":81128,"freshness":"FRESH","line1":"1 65963U 25228S   26144.88519644  .00001299  00000+0  19930-3 0  9995","line2":"2 65963  51.9038   8.6931 0000763 108.9426 251.1620 14.79937432 34722","mean_motion":14.79937432,"eccentricity":7.63e-5,"inclination_deg":51.9038,"raan_deg":8.6931,"arg_perigee_deg":108.9426,"mean_anomaly_deg":251.162,"bstar":0.0001993,"rev_number":3472,"period_min":97.301410780182,"perigee_km":628.98695413004,"apogee_km":630.05632283828,"semimajor_km":7007.6586384842,"source":"CELESTRAK","updated_at":"2026-05-25T13:38:05.849252Z"}}}